BEIDOU-3 M10

Last updated on May 15, 2019, 3:07 a.m. UTC

1 43582U 18062B   19134.25471061 -.00000051  00000-0  00000+0 0  9999
2 43582  54.7985 270.8800 0003247   5.7093  40.7862  1.86231985  5383
UTC
Height (km)
Latitude
Longitude
Inclination
Orbital Period
UTC large
Height (km)
Speed (km/s)
/
Latitude / Longitude
Inclination (degrees)
Orbital Period (minutes)
Azimuth
Elevation
Range (km)
Doppler Factor
iOS Compass Heading
iOS Angle

Next 30 passes for location: Hong Kong

Rise time Rise Azimuth (degrees) Set time Set Azimuth (degrees) Duration Max altitude (degrees)

No matching passes for this satellites